Flag Weather past 2 weeks in Kitchener, Ontario, Canada

Now
21 °F

Overcast.


Feels Like: 10 °F
Forecast: N/A
Wind: 10 mph from Southwest

Location: Waterloo Well

Current Time: Nov 28, 2014 at 5:57:39 PM

Latest Report: Nov 28, 2014 at 5:00 PM


Visibility: 9 mi

Pressure: 30.23 "Hg

Humidity: 74%

Dew point: 14 °F

Location of KitchenerLocation

Historic Weather in Kitchener — Graph

°F

Kitchener temperature yesterday

Maximum temperature yesterday: 34 °F (at 12:47 PM)
Minimum temperature yesterday: 21 °F (at 11:00 PM)
Average temperature yesterday: 29 °F

Past Weeks' High & Low Weather Summary

 TemperatureHumidityPressure
High57 °F (Nov 24, 11:00 AM)100% (Nov 14, 6:00 AM)30.47 "Hg (Nov 14, 6:00 AM)
Low9 °F (Nov 21, 7:00 AM)54% (Nov 21, 1:00 PM)29.15 "Hg (Nov 24, 6:00 AM)
Average28 °F83%29.97 "Hg
* Reported Nov 13 4:00 PM — Nov 28 4:00 PM, Kitchener, Weather by CustomWeather, © 2014

Note: Actual official high and low records may vary slightly from our data, if they occured in-between our weather recording intervals... More about our weather records

Advertising

Kitchener weather history for previous 24 hours

 ConditionsComfort  
Time TempWeatherWind HumidityBarometerVisibility
4:00 PM
Nov 28
21 °FLight snow. Mostly cloudy.10 mph80%30.23 "Hg9 mi
3:00 PM23 °FLight snow. Overcast.13 mph74%30.23 "Hg9 mi
2:00 PM23 °FLight snow. More clouds than sun.12 mph68%30.23 "Hg9 mi
1:58 PM23 °FLight snow. More clouds than sun.12 mph68%30.23 "Hg9 mi
1:00 PM23 °FLight snow. Overcast.12 mph74%30.24 "Hg9 mi
12:00 PM23 °FLight snow. Overcast.13 mph74%30.25 "Hg9 mi
11:00 AM23 °FPartly sunny.15 mph68%30.28 "Hg9 mi
10:00 AM23 °FOvercast.13 mph74%30.28 "Hg9 mi
9:00 AM19 °FOvercast.14 mph86%30.28 "Hg9 mi
8:00 AM18 °FPassing clouds.7 mph86%30.27 "Hg9 mi
7:00 AM18 °FPassing clouds.12 mph86%30.27 "Hg9 mi
6:00 AM19 °FClear.12 mph79%30.25 "Hg9 mi
5:00 AM19 °FPassing clouds.12 mph73%30.24 "Hg9 mi
4:00 AM19 °FPassing clouds.15 mph79%30.23 "Hg9 mi
3:00 AM19 °FClear.15 mph79%30.21 "Hg9 mi
2:00 AM19 °FPassing clouds.14 mph79%30.21 "Hg9 mi
1:52 AM19 °FPassing clouds.12 mph79%30.21 "Hg9 mi
1:00 AM21 °FPassing clouds.15 mph74%30.20 "Hg9 mi
12:00 AM21 °FPassing clouds.13 mph80%30.20 "Hg9 mi
11:00 PM
Nov 27
21 °FClear.14 mph86%30.19 "Hg9 mi
10:00 PM23 °FClear.14 mph80%30.19 "Hg9 mi
9:00 PM25 °FLight snow. Overcast.18 mph80%30.17 "Hg9 mi
8:00 PM27 °FLight snow. Mostly cloudy.16 mph86%30.14 "Hg9 mi
7:00 PM28 °FLight snow. Overcast.10 mph86%30.12 "Hg5 mi
6:00 PM30 °FLight snow. Overcast.6 mph93%30.09 "Hg5 mi
5:04 PM30 °FMostly cloudy.6 mph93%30.08 "Hg9 mi
Weather by CustomWeather, © 2014

See weather overviewHow to use our weather pages